Location: Unspecified
(22.6800°N, 112.2000°E)
Time: 12:52:50
(UTC+08:00)

Transit 2A - Pass Details

Date: 11 August 2021
Orbit: 595 x 963 km, 66.7° (Epoch: 16 September)

Event Time Altitude Azimuth Distance (km) Brightness Sun altitude
Rises 13:03:57 0° 353° (N) 3,413 9.3 80.1°
Reaches altitude 10° 13:06:43 10° 6° (N) 2,531 8.7 79.6°
Maximum altitude 13:11:43 28° 63° (ENE) 1,667 8.0 78.8°
Drops below altitude 10° 13:16:57 10° 120° (ESE) 2,667 8.9 77.9°
Sets 13:19:56 0° 131° (SE) 3,629 9.5 77.3°
